Temp_Advection
nan nan nan nan nan nan nan nan nan nan nan nan nan nan nan nan nan nan nan nan nan nan nan nan nan nan nan nan nan nan nan nan nan nan nan nan nan nan nan nan nan nan nan nan nan nan nan nan nan
nan 0 0 -0 -0 0 0 0 -0 -0 -0 0 -0 -0 -0 -0 0 0 -0 0 0 -0 -1 -0 0 -0 -0 -0 -0 0 0 0 0 0 0 0 0 -0 -0 0 0 0 0 0 0 -0 -0 -0 nan
nan 0 -0 -0 0 0 0 -0 -0 -0 -0 -0 0 -0 -0 -0 0 0 -1 -0 0 0 -0 -0 0 -0 -0 -0 -0 -0 -0 0 0 0 0 0 0 0 -0 0 0 0 0 0 0 0 0 -0 nan
nan 0 -0 0 0 0 0 -0 -0 -0 -0 0 -0 -0 -0 -0 -0 -0 -1 -0 -0 0 -0 -0 -0 -0 -0 -0 -0 -0 -0 -0 -0 0 -0 -0 -0 -0 0 0 0 0 0 0 0 0 0 0 nan
nan -0 -0 0 0 -0 -0 -0 -0 -0 -0 0 0 -0 -0 0 0 0 -0 -0 0 0 -0 -0 -0 -0 0 0 0 -0 0 -0 -0 0 -0 -0 -0 -0 0 0 0 0 0 0 0 0 0 0 nan
nan -0 0 0 -0 -0 -0 -0 -0 -0 0 -0 -0 -0 0 -0 0 0 0 0 0 0 0 -0 -0 0 0 0 0 0 0 0 -0 -0 -0 -0 0 0 0 0 0 0 0 0 0 0 0 0 nan
nan -0 -0 -0 -0 0 -0 -0 -0 0 0 -0 -0 -0 0 0 0 0 0 0 0 0 0 0 0 0 0 0 0 0 -0 0 0 0 0 0 0 0 0 0 0 0 0 0 -0 0 0 0 nan
nan -0 -0 0 -0 -0 -0 0 0 -0 0 0 -0 -0 -0 -0 -0 0 0 0 0 1 0 0 0 0 0 0 0 0 0 -0 0 0 1 0 0 0 0 0 0 0 0 -0 -0 0 0 0 nan
nan -0 -0 -0 -0 0 -0 -0 -0 -0 0 0 0 -0 -0 -0 -0 -0 0 0 0 0 0 0 0 -0 0 0 0 0 0 0 0 0 0 0 0 0 0 0 -0 0 0 -0 0 0 0 0 nan
nan 0 -0 -0 -0 -0 -0 -0 -0 0 0 0 0 0 1 1 0 -0 -0 -0 -0 -0 0 0 0 0 -0 -0 0 0 0 0 0 0 0 0 0 0 -0 -0 0 0 -0 0 0 -0 -0 0 nan
nan -0 -0 -0 -0 -0 -0 -0 -0 -0 -0 -1 -1 -0 0 0 0 0 -0 -0 -0 -0 -0 0 -0 0 0 -0 -0 0 0 0 0 0 0 0 0 0 0 -0 -0 -0 -0 -0 -0 -0 0 0 nan
nan -0 -1 -0 -0 -0 -0 -0 0 0 -0 0 0 -1 -1 -0 -0 -0 -0 0 0 -0 -0 -0 -0 -0 -0 -0 -0 0 0 0 0 0 0 0 0 0 -0 -0 0 -0 -0 -0 0 0 0 -0 nan
nan -0 -0 -0 -0 -0 -0 0 0 0 -0 0 1 2 1 0 -0 -0 0 -0 -0 -0 -0 -0 -0 -0 0 0 0 0 0 0 0 0 0 -0 -0 -0 -0 -0 -0 -0 -0 -0 -0 -0 -0 -0 nan
nan 0 -1 -0 0 0 -0 -0 0 -0 0 1 1 0 1 1 -0 -0 -0 -0 -0 -0 -0 -0 -0 0 0 0 0 0 0 0 -0 -0 -0 -0 -0 -0 -0 0 -0 -0 -0 -0 -0 -0 -0 0 nan
nan -0 -0 -0 -0 0 -0 -0 -0 0 0 0 0 -0 -1 -0 0 0 -0 0 0 0 0 0 0 0 0 0 0 0 0 -0 -0 -0 0 0 -0 -0 -0 -0 -0 -0 -0 -0 -0 -0 0 0 nan
nan -0 -0 -0 -1 -0 -0 0 -0 0 -0 -0 0 0 -0 -0 0 0 0 0 0 0 0 0 0 0 0 0 0 0 0 -0 -0 0 0 -0 -0 -0 -0 -0 -0 -0 -0 -0 -0 -0 0 0 nan
nan 0 0 -0 0 -0 -0 0 -0 0 0 -0 0 0 0 -0 -0 -0 -0 -0 0 -0 0 0 0 0 0 0 0 0 -0 -0 -0 0 0 -0 -0 -0 -0 -0 -0 -0 -0 -0 -0 0 -0 0 nan
nan 0 -0 -0 0 -1 -0 -0 -0 -0 -0 -0 -0 0 0 -0 -0 -0 -0 0 -0 0 0 0 0 0 0 0 0 0 -0 -0 -0 -0 -0 0 -0 0 -0 -0 -0 -0 -0 0 0 0 0 0 nan
nan 0 -0 -0 0 -1 -0 -0 -0 -0 -0 -0 -0 -0 0 0 0 0 -0 -0 -0 -0 -0 0 0 0 0 0 -0 -0 -0 0 0 0 0 0 0 -0 -0 -0 0 -0 -0 -0 -0 -0 -0 0 nan
nan 0 -0 0 -0 -0 0 -0 0 -0 -0 0 -0 -0 -0 -0 -0 -0 -0 -0 -0 -0 0 0 0 0 -0 -0 0 0 0 0 0 0 0 0 -0 -0 0 0 0 -0 -0 -0 -0 -0 -0 -0 nan
nan -0 -0 0 -0 -0 -0 -0 0 0 0 0 0 -0 -0 -0 -0 -0 -0 -0 0 0 0 0 0 -0 -0 0 0 0 0 -0 -0 -0 0 0 0 0 -0 -0 -0 -0 -0 -0 -0 -0 -0 -0 nan
nan -0 -0 0 -0 -0 -0 0 0 -0 0 0 -0 0 -0 -0 -0 -0 -0 -0 0 0 0 0 0 0 0 0 0 -0 0 0 0 0 0 0 0 -0 -0 -0 -0 -0 -0 -0 -0 -0 -0 -0 nan
nan -0 -0 -0 -0 -0 -0 0 -0 0 -0 -0 0 -0 -1 -0 -0 -0 -0 0 0 0 0 0 0 0 0 0 0 0 0 0 0 -0 0 0 -0 -0 -0 -0 -0 -0 -0 -0 -0 -0 -0 -0 nan
nan -1 -1 -0 0 -0 -0 0 -0 0 0 -0 -0 -0 -0 -0 -0 -0 0 0 0 0 -0 0 0 0 0 0 0 0 0 0 0 -0 -0 0 0 -0 -0 -0 -0 -0 -0 -0 0 -0 -0 -0 nan
nan -0 -0 0 0 0 0 0 -0 -0 0 -0 -0 -0 -0 0 0 -0 -0 -0 -0 -0 0 0 0 0 0 0 0 1 1 0 0 0 -0 -0 -0 -0 -0 -0 -0 -0 -0 0 -0 -0 -0 -0 nan
nan -0 0 0 0 0 -0 -0 0 0 -0 0 1 0 0 0 -0 -0 -0 -0 -0 0 1 1 -0 -0 0 0 0 1 1 0 0 0 0 0 -0 -0 -0 -0 -0 -0 0 0 -0 0 -0 -0 nan
nan -0 -1 -1 0 0 -0 -1 -0 0 0 0 0 1 0 0 -0 -0 -0 -0 -0 0 0 0 0 -0 0 0 0 0 0 0 0 0 0 -0 -0 -0 -0 -0 -0 0 0 0 0 0 0 -0 nan
nan -0 -0 -0 0 0 0 -0 -0 -0 -0 -0 -0 0 1 1 0 0 -0 -0 -0 -0 0 0 0 0 1 0 0 0 0 0 0 0 0 0 0 -0 -0 -0 0 0 0 0 0 -0 -0 0 nan
nan -0 -1 -0 0 0 0 -0 -0 0 -0 -0 -0 0 1 1 0 0 0 0 -0 -0 -0 0 0 0 0 -0 -0 0 0 0 0 0 0 0 0 0 -0 -0 0 -0 -0 0 0 0 0 -0 nan
nan nan nan nan nan nan nan nan nan nan nan nan nan nan nan nan nan nan nan nan nan nan nan nan nan nan nan nan nan nan nan nan nan nan nan nan nan nan nan nan nan nan nan nan nan nan nan nan nan
Wind_Speed
2 5 2 2 3 5 3 2 1 4 6 3 9 4 5 2 2 2 13 30 28 28 30 30 28 26 25 24 23 22 21 21 21 21 20 18 17 15 13 11 9 7 7 8 7 6 7 7 6
6 4 1 1 4 3 2 2 6 6 13 10 12 8 1 1 1 6 29 27 28 28 30 30 28 27 25 23 21 21 21 21 21 21 20 18 16 14 12 10 7 6 6 6 6 5 5 6 5
7 9 1 4 3 3 4 5 7 4 6 8 3 3 1 2 2 21 28 30 29 28 29 30 27 25 24 22 20 21 22 22 21 20 18 17 15 14 12 9 7 6 6 6 5 4 3 4 5
7 3 3 4 4 2 4 1 9 5 4 4 9 4 3 2 10 25 27 31 29 27 27 29 27 24 22 21 20 20 21 21 20 18 18 16 14 12 10 8 7 6 5 6 5 4 4 4 6
7 3 4 4 2 5 6 10 14 5 4 2 5 3 5 11 16 23 26 31 29 28 28 29 28 24 22 20 19 18 19 19 20 19 16 15 14 12 10 8 8 7 6 6 6 5 4 4 5
3 2 4 1 2 3 4 12 8 9 5 2 4 6 5 7 11 23 24 29 28 28 28 28 27 25 23 21 19 18 17 18 18 18 16 13 12 8 9 8 7 6 7 6 6 6 6 5 5
2 3 1 2 2 2 4 9 6 5 6 3 12 4 3 10 14 21 22 27 27 28 28 27 26 25 23 20 19 18 18 16 16 16 15 14 12 13 10 8 7 6 6 6 6 7 6 5 7
2 3 2 1 1 4 7 9 2 4 4 11 7 6 6 19 19 23 23 25 25 26 26 26 26 25 23 20 19 18 17 17 16 18 16 15 15 12 12 9 8 8 6 6 6 6 5 6 7
3 3 2 4 4 4 9 8 7 3 6 7 7 7 6 25 27 24 25 25 25 23 23 24 24 23 23 20 19 17 16 17 17 20 16 15 13 11 11 11 11 10 8 7 6 6 7 6 6
3 2 4 4 5 6 10 11 15 6 7 6 4 4 12 30 30 26 28 28 27 26 25 23 23 22 22 20 20 17 17 15 15 13 13 13 12 10 10 11 11 10 9 8 7 8 7 6 5
3 4 3 2 6 10 6 6 12 8 4 13 17 21 28 32 30 27 28 27 27 25 25 25 23 21 21 19 19 16 13 11 12 11 13 14 12 11 8 8 10 12 9 9 9 8 5 5 4
2 10 9 8 3 6 6 10 7 19 5 7 20 22 33 34 32 29 28 27 26 25 23 25 23 22 20 17 16 11 10 11 10 11 14 15 15 11 7 5 4 8 9 8 8 7 5 6 5
4 5 7 8 7 13 11 6 3 4 12 3 21 26 29 31 30 28 26 24 22 23 21 22 23 22 20 18 16 15 10 9 8 10 12 15 11 12 8 8 6 6 7 7 7 6 4 3 1
6 12 13 3 9 12 4 4 8 6 6 20 24 25 27 29 26 24 25 22 22 22 20 19 19 19 20 19 17 16 11 8 7 7 9 11 11 9 9 10 8 6 7 6 7 4 2 3 4
6 5 4 3 2 3 5 5 5 10 18 27 25 24 25 25 22 21 12 14 16 18 19 18 18 18 19 18 17 16 12 10 8 7 9 12 11 11 12 13 7 6 5 6 5 3 1 2 4
4 5 4 5 10 6 3 3 6 11 18 21 22 19 24 20 18 16 17 14 14 18 19 20 19 18 16 16 17 19 12 10 9 10 10 10 11 11 12 13 9 5 8 6 4 2 3 5 5
6 2 4 10 11 1 4 1 6 9 9 11 9 7 19 16 11 15 15 9 16 13 16 18 19 18 14 12 13 12 11 11 9 12 13 12 12 15 16 15 11 6 8 5 2 4 3 4 3
3 4 4 4 5 8 5 3 4 6 4 4 5 5 10 17 10 18 10 12 16 15 15 15 17 16 15 12 12 14 13 13 12 11 13 14 14 15 17 16 13 9 8 5 3 5 2 4 3
1 3 4 5 4 5 3 5 6 7 4 4 7 3 12 21 12 16 13 12 15 16 16 15 16 15 16 15 14 16 15 13 13 12 11 14 16 16 17 20 16 11 8 5 5 6 6 3 1
4 5 4 2 6 5 3 4 6 5 4 1 4 7 10 16 15 14 11 12 12 12 12 14 13 14 14 13 12 13 8 10 13 11 13 14 15 17 17 19 17 14 9 7 7 4 5 5 2
4 4 4 5 4 8 3 5 5 3 3 2 2 5 7 12 14 11 12 13 15 15 15 12 13 12 13 11 12 14 15 14 13 14 14 15 16 15 16 19 19 15 12 10 8 6 4 3 2
5 6 7 5 4 3 2 2 4 4 2 3 9 7 11 11 20 14 16 17 15 13 14 14 12 13 14 15 16 17 15 14 13 13 12 12 15 15 16 18 20 16 14 11 9 6 5 4 2
7 4 3 4 5 3 6 5 4 3 4 8 6 6 13 15 16 16 16 14 13 14 14 14 14 14 13 13 15 17 18 15 14 12 11 11 14 14 17 19 21 19 16 12 11 8 7 6 4
4 5 7 5 3 3 4 3 4 2 5 6 8 2 10 17 16 16 13 14 15 15 16 16 16 16 16 15 17 18 17 16 18 15 13 13 13 16 17 20 22 20 17 14 11 10 8 7 6
4 6 3 4 4 4 4 1 6 5 7 5 5 3 10 17 19 16 14 13 14 16 16 18 20 19 17 18 19 20 18 16 18 16 15 14 14 17 18 21 25 22 18 15 14 10 10 10 9
4 7 5 4 3 2 3 2 4 7 10 3 10 3 6 11 15 16 14 14 14 14 16 17 21 21 19 21 16 14 14 16 17 16 15 15 14 15 17 20 23 24 23 20 16 15 12 13 12
4 3 5 8 3 3 4 5 7 5 5 15 11 9 7 7 8 10 11 12 14 17 18 9 9 6 18 21 15 13 12 13 14 14 15 16 14 15 17 21 25 23 23 22 18 17 14 14 13
3 7 4 3 4 1 4 5 5 5 6 9 9 8 10 9 6 7 10 12 14 15 16 19 18 15 17 20 20 14 11 12 12 13 16 17 16 16 17 22 25 25 24 24 21 20 20 18 16
2 2 6 6 4 6 2 6 8 3 8 11 6 11 13 14 11 7 4 2 3 7 10 12 15 14 15 16 16 20 15 14 13 13 15 18 17 19 20 20 23 25 24 24 23 22 20 19 19
2 6 6 5 5 1 3 6 5 4 9 15 13 15 15 14 14 12 11 12 12 13 13 9 4 6 9 12 14 16 17 14 16 15 18 19 20 20 22 23 24 24 24 24 24 22 22 24 24
Wind_Direction
254 344 331 193 59 66 100 71 111 319 316 243 155 165 202 66 165 193 151 162 165 162 164 164 164 158 155 152 153 157 159 159 158 157 156 154 153 154 150 148 144 141 130 120 116 113 113 125 136
62 355 335 76 81 71 53 54 249 246 272 124 146 133 95 94 119 151 151 158 166 164 167 168 169 167 163 161 161 162 162 162 161 160 161 162 159 159 159 154 157 156 151 145 148 132 121 127 137
340 358 50 88 99 121 107 210 261 250 247 284 138 92 74 93 129 154 154 158 165 167 169 172 172 174 171 169 171 173 172 171 170 170 169 172 174 173 170 169 179 178 177 179 186 182 172 156 164
337 336 69 74 68 44 131 260 268 307 301 108 133 73 64 350 146 149 154 160 165 168 167 172 174 177 177 174 173 176 179 180 179 182 179 180 183 183 185 188 196 196 202 212 208 206 210 205 191
335 9 53 61 32 158 198 188 207 249 243 92 164 116 69 113 146 154 157 163 168 167 170 172 174 178 180 176 173 173 176 176 180 187 185 183 184 190 200 205 216 228 228 234 237 235 225 209 200
1 55 55 83 278 196 221 204 213 236 242 97 101 101 137 171 171 162 164 167 170 170 173 177 180 182 184 186 184 183 177 178 176 181 185 176 200 195 215 218 226 241 248 242 241 235 222 216 192
102 74 149 184 200 311 232 193 219 181 140 169 153 98 149 177 188 174 171 172 174 175 175 178 181 185 185 183 184 186 181 183 179 190 175 197 204 204 222 219 233 245 259 243 232 231 223 212 215
146 95 331 119 186 257 198 185 77 225 133 163 154 172 176 179 178 172 174 177 179 180 180 179 180 185 182 184 186 188 189 185 185 190 190 201 209 221 226 234 246 254 255 240 228 225 216 219 230
161 56 285 176 189 250 157 166 210 218 159 173 204 186 179 167 164 171 176 179 180 185 189 184 184 186 181 184 186 188 195 194 191 197 201 213 213 229 234 244 255 258 243 236 234 228 229 225 231
110 113 239 188 197 198 189 169 171 178 173 188 176 195 180 168 167 172 178 182 187 188 190 195 189 189 187 186 190 195 198 200 211 221 220 219 213 241 249 259 251 239 243 232 233 247 243 250 241
174 215 247 286 208 199 202 202 177 157 229 208 187 164 167 167 171 177 182 185 187 187 193 197 197 196 196 194 200 202 199 208 222 226 222 220 229 245 257 268 241 231 240 245 246 237 251 265 244
263 240 246 285 100 177 178 177 192 195 222 271 217 182 167 173 177 184 186 188 188 189 191 194 199 202 202 203 211 204 207 221 237 234 231 229 226 239 244 244 214 220 242 248 246 242 245 263 253
205 283 272 296 309 175 163 155 182 221 265 251 180 178 177 180 186 191 194 193 192 193 193 195 199 203 206 207 213 209 222 235 236 236 228 227 224 209 230 240 233 223 236 250 244 235 248 254 263
288 272 298 296 242 187 137 49 133 43 162 149 160 169 184 186 193 195 203 197 200 203 202 200 197 208 209 215 222 221 239 233 230 223 215 208 208 221 221 237 224 234 259 235 206 195 247 276 263
284 309 343 353 7 240 140 42 34 113 139 128 153 174 180 194 194 208 207 211 214 214 211 206 200 205 213 221 227 229 234 228 229 204 213 217 214 216 222 226 214 237 224 216 224 215 293 325 295
12 41 16 295 6 22 79 299 85 132 146 145 163 173 179 192 206 196 210 218 222 218 215 214 211 208 214 223 227 236 221 229 230 213 213 217 215 214 216 219 219 230 228 214 217 288 263 295 287
6 24 1 328 31 28 45 206 23 155 175 164 176 130 164 171 189 199 215 223 221 215 213 217 217 217 216 223 227 238 224 235 236 224 219 221 219 218 220 216 217 232 233 214 144 14 276 284 312
336 1 319 264 351 41 60 50 61 53 50 336 313 106 165 171 202 192 203 229 215 217 217 218 222 223 221 226 227 221 226 233 233 230 221 224 229 226 218 220 219 226 237 233 260 311 288 334 318
293 226 278 256 173 69 47 43 6 353 34 31 316 240 160 193 169 192 213 212 212 217 224 221 224 221 223 228 226 223 232 240 244 240 230 230 235 233 225 219 224 232 249 262 269 297 287 283 346
232 276 291 315 39 91 20 22 1 17 25 291 256 259 201 197 201 201 224 212 206 207 219 225 225 225 228 229 233 236 246 256 254 257 239 232 232 237 236 223 222 230 247 262 266 295 287 271 280
247 214 206 200 131 51 99 5 1 11 38 356 268 250 231 211 196 203 211 208 211 208 212 218 225 223 227 238 243 249 250 258 261 255 246 233 236 246 234 224 219 227 242 252 258 276 301 299 261
293 222 214 148 120 155 9 178 350 335 326 208 234 274 229 207 205 210 212 215 221 220 227 231 230 234 237 240 247 255 263 265 276 282 266 243 243 241 223 223 221 227 235 247 245 267 283 306 31
240 20 95 79 98 95 12 87 269 332 302 327 5 218 218 209 203 214 213 223 234 238 240 242 243 245 244 252 256 258 265 271 275 276 259 248 237 233 229 221 219 226 233 244 241 262 277 292 293
176 72 47 58 78 47 326 84 284 288 274 299 313 243 219 211 208 210 222 235 246 250 253 252 252 253 253 258 261 264 267 272 272 267 255 249 244 236 229 224 217 222 231 238 242 246 268 274 298
96 69 5 10 9 217 282 85 223 215 253 262 278 210 208 223 220 214 223 241 258 263 263 258 259 262 262 265 267 266 267 274 270 265 259 256 251 240 235 225 220 223 230 242 243 245 261 264 275
176 151 147 194 203 268 312 261 243 204 264 62 83 135 194 222 230 231 235 252 264 282 285 288 270 257 264 266 271 273 268 274 268 259 254 259 259 245 241 230 223 227 233 240 247 247 255 259 264
189 139 149 104 6 59 305 291 289 237 206 73 75 123 143 209 241 246 239 251 266 280 277 257 290 271 265 271 284 279 295 284 279 267 258 254 256 245 239 232 229 229 233 237 244 248 252 260 261
175 149 88 25 127 210 301 282 238 253 133 74 64 93 126 144 185 219 236 250 265 273 275 280 289 285 268 274 271 284 293 304 289 274 256 255 256 249 237 233 230 230 235 236 242 250 252 258 255
129 81 52 111 110 151 164 260 230 196 116 112 107 124 126 123 124 118 103 71 325 298 284 277 268 274 279 287 291 287 285 293 294 281 274 262 255 250 243 236 229 232 233 235 241 245 251 255 259
280 145 138 123 227 136 153 271 280 146 92 129 141 137 132 127 119 111 95 82 67 54 44 37 331 288 283 286 284 282 284 284 273 276 272 268 260 253 249 246 241 240 241 240 241 243 251 253 257
Height
1506 1505 1504 1505 1515 1517 1530 1526 1519 1521 1519 1512 1511 1512 1512 1513 1514 1525 1516 1522 1526 1531 1535 1540 1544 1548 1551 1554 1557 1560 1562 1564 1566 1568 1570 1572 1574 1576 1577 1578 1579 1580 1581 1581 1582 1582 1583 1583 1584
1506 1506 1506 1506 1522 1533 1536 1525 1524 1520 1518 1514 1514 1514 1514 1514 1514 1515 1518 1523 1528 1533 1536 1541 1545 1549 1552 1556 1558 1561 1564 1566 1568 1570 1572 1574 1575 1577 1579 1580 1581 1582 1582 1583 1583 1584 1584 1585 1585
1507 1505 1506 1511 1524 1535 1536 1522 1517 1515 1515 1516 1516 1516 1515 1515 1515 1517 1521 1524 1531 1534 1538 1543 1547 1551 1554 1557 1560 1562 1564 1567 1570 1571 1573 1575 1577 1578 1580 1581 1582 1583 1583 1584 1584 1585 1585 1586 1586
1506 1507 1508 1517 1526 1524 1523 1520 1509 1514 1513 1513 1515 1517 1517 1516 1516 1520 1524 1528 1533 1537 1541 1544 1548 1552 1555 1557 1560 1564 1565 1568 1570 1572 1573 1575 1578 1579 1581 1582 1583 1583 1584 1584 1584 1585 1585 1586 1587
1507 1506 1514 1519 1521 1518 1518 1518 1510 1513 1513 1512 1514 1518 1519 1521 1521 1523 1525 1530 1534 1538 1541 1545 1549 1553 1557 1559 1562 1565 1566 1568 1571 1572 1574 1575 1577 1580 1581 1582 1583 1583 1584 1584 1585 1585 1585 1586 1587
1508 1509 1521 1528 1521 1513 1514 1515 1517 1515 1514 1515 1516 1518 1522 1523 1525 1525 1528 1531 1536 1539 1543 1547 1551 1553 1557 1560 1563 1565 1567 1568 1570 1573 1575 1576 1578 1580 1581 1582 1583 1583 1583 1584 1585 1585 1585 1586 1586
1509 1513 1520 1518 1517 1514 1508 1510 1512 1511 1513 1515 1515 1518 1521 1522 1525 1527 1529 1533 1537 1541 1544 1548 1552 1554 1557 1561 1563 1565 1567 1570 1570 1573 1575 1577 1578 1579 1581 1581 1582 1582 1583 1583 1584 1584 1585 1586 1587
1509 1512 1515 1517 1517 1513 1503 1506 1509 1511 1513 1514 1515 1516 1520 1520 1523 1528 1531 1535 1539 1543 1546 1548 1552 1555 1558 1561 1563 1565 1566 1570 1572 1573 1574 1576 1578 1579 1579 1581 1581 1581 1582 1582 1583 1584 1583 1584 1585
1509 1518 1523 1515 1511 1503 1501 1503 1506 1509 1511 1512 1513 1513 1514 1518 1523 1527 1531 1536 1540 1544 1546 1549 1552 1555 1558 1560 1563 1565 1567 1569 1570 1572 1573 1575 1577 1577 1578 1580 1580 1581 1581 1581 1582 1583 1582 1584 1584
1509 1520 1511 1502 1501 1500 1501 1500 1503 1509 1508 1510 1512 1512 1513 1517 1522 1527 1531 1534 1539 1541 1545 1549 1551 1554 1558 1560 1562 1565 1567 1569 1571 1571 1572 1575 1575 1577 1577 1578 1578 1579 1580 1581 1581 1582 1582 1583 1584
1508 1511 1501 1497 1499 1499 1502 1503 1504 1506 1509 1504 1505 1509 1514 1519 1523 1527 1531 1533 1536 1541 1545 1549 1552 1555 1557 1559 1562 1563 1567 1570 1571 1571 1572 1573 1574 1576 1576 1576 1576 1578 1579 1580 1581 1581 1582 1582 1582
1508 1500 1501 1496 1497 1499 1500 1498 1500 1501 1502 1501 1505 1507 1510 1517 1521 1525 1529 1533 1536 1539 1543 1547 1550 1554 1557 1560 1562 1565 1567 1568 1569 1570 1571 1571 1572 1574 1575 1576 1576 1577 1578 1579 1580 1580 1580 1581 1581
1504 1499 1497 1498 1498 1494 1493 1494 1497 1500 1499 1500 1503 1507 1511 1517 1521 1526 1530 1533 1536 1540 1543 1546 1549 1552 1556 1559 1561 1563 1566 1567 1568 1568 1569 1570 1569 1570 1574 1575 1576 1577 1577 1579 1579 1580 1580 1580 1579
1500 1498 1497 1495 1492 1491 1493 1498 1497 1503 1500 1499 1505 1511 1515 1517 1524 1528 1530 1534 1537 1541 1544 1546 1549 1552 1555 1558 1560 1562 1564 1565 1566 1566 1567 1569 1570 1570 1573 1574 1576 1577 1577 1578 1579 1579 1579 1579 1578
1500 1500 1496 1493 1493 1492 1493 1500 1507 1505 1504 1503 1506 1510 1515 1521 1524 1528 1533 1535 1536 1540 1544 1546 1548 1551 1553 1556 1558 1560 1561 1563 1564 1565 1567 1567 1569 1570 1572 1573 1575 1576 1576 1577 1578 1578 1577 1577 1577
1504 1504 1515 1496 1494 1495 1494 1512 1511 1512 1508 1507 1509 1514 1512 1518 1521 1527 1530 1534 1538 1539 1542 1545 1547 1550 1552 1555 1556 1557 1558 1560 1562 1564 1565 1566 1567 1569 1570 1572 1574 1576 1576 1576 1577 1576 1576 1576 1575
1514 1523 1516 1509 1499 1497 1499 1510 1513 1514 1513 1513 1514 1516 1516 1521 1522 1525 1529 1533 1537 1539 1541 1544 1547 1549 1552 1553 1555 1556 1558 1559 1561 1562 1563 1565 1565 1567 1568 1571 1573 1575 1576 1576 1576 1576 1576 1576 1575
1524 1525 1518 1516 1505 1503 1508 1513 1513 1516 1516 1514 1514 1517 1518 1522 1524 1524 1528 1533 1537 1539 1542 1545 1547 1549 1551 1553 1553 1554 1555 1557 1558 1560 1562 1563 1563 1565 1567 1569 1572 1574 1576 1576 1575 1576 1575 1575 1574
1515 1519 1521 1508 1502 1511 1516 1517 1516 1516 1518 1517 1515 1517 1520 1520 1526 1527 1531 1534 1536 1538 1542 1544 1547 1548 1550 1551 1552 1552 1553 1555 1556 1559 1559 1561 1562 1563 1565 1568 1571 1572 1574 1575 1575 1575 1575 1575 1575
1515 1517 1517 1505 1505 1511 1518 1521 1519 1517 1519 1520 1520 1520 1521 1523 1527 1529 1531 1533 1536 1539 1540 1542 1546 1548 1549 1550 1550 1552 1553 1554 1555 1557 1557 1558 1558 1561 1563 1565 1569 1572 1574 1574 1574 1574 1575 1575 1575
1513 1514 1512 1510 1512 1514 1520 1529 1525 1521 1521 1520 1521 1522 1523 1523 1526 1528 1531 1533 1536 1537 1538 1541 1543 1546 1547 1550 1550 1550 1551 1552 1553 1554 1555 1556 1557 1559 1561 1564 1567 1570 1572 1573 1574 1574 1574 1574 1574
1517 1500 1500 1503 1517 1534 1523 1551 1530 1525 1520 1518 1518 1519 1520 1522 1525 1527 1530 1533 1535 1537 1539 1542 1543 1545 1547 1548 1548 1549 1549 1550 1552 1553 1554 1555 1556 1557 1558 1562 1565 1569 1571 1572 1573 1573 1573 1574 1573
1508 1495 1500 1508 1522 1526 1532 1545 1533 1529 1526 1518 1515 1516 1518 1520 1524 1526 1528 1531 1535 1537 1539 1541 1542 1543 1544 1545 1546 1546 1547 1548 1550 1551 1551 1552 1553 1555 1557 1559 1563 1566 1569 1570 1571 1572 1572 1572 1572
1496 1503 1511 1519 1528 1547 1543 1544 1544 1534 1526 1519 1512 1515 1517 1520 1522 1524 1528 1531 1533 1535 1537 1538 1540 1540 1542 1543 1544 1544 1545 1546 1548 1549 1550 1551 1551 1552 1555 1557 1560 1563 1566 1567 1569 1570 1571 1572 1572
1499 1516 1546 1544 1553 1551 1540 1540 1536 1522 1518 1515 1509 1510 1516 1519 1522 1524 1526 1529 1530 1531 1532 1534 1536 1537 1539 1541 1542 1543 1544 1545 1546 1547 1549 1550 1550 1551 1552 1554 1557 1560 1563 1565 1566 1568 1569 1569 1570
1502 1509 1540 1546 1560 1549 1536 1537 1524 1515 1514 1511 1506 1510 1514 1517 1521 1523 1525 1527 1528 1528 1528 1531 1532 1535 1538 1540 1541 1541 1542 1543 1544 1545 1547 1548 1549 1549 1550 1552 1554 1557 1560 1562 1563 1565 1566 1566 1567
1501 1513 1509 1546 1554 1552 1553 1531 1511 1508 1512 1507 1509 1511 1513 1517 1519 1522 1524 1525 1526 1525 1525 1530 1525 1530 1534 1537 1538 1538 1538 1540 1543 1544 1545 1545 1545 1546 1546 1547 1549 1551 1554 1557 1559 1561 1562 1563 1564
1490 1497 1520 1534 1555 1556 1554 1545 1535 1509 1509 1507 1512 1513 1515 1516 1519 1521 1523 1523 1524 1524 1524 1524 1526 1528 1532 1533 1535 1535 1538 1539 1540 1540 1540 1541 1543 1543 1543 1543 1544 1547 1549 1551 1554 1556 1558 1559 1560
1498 1505 1518 1526 1538 1558 1563 1540 1501 1503 1500 1504 1512 1515 1517 1517 1519 1521 1522 1522 1522 1522 1523 1524 1525 1526 1529 1530 1534 1535 1535 1538 1539 1538 1538 1538 1539 1541 1541 1542 1542 1543 1544 1546 1548 1551 1553 1554 1555
1482 1493 1505 1528 1537 1544 1540 1530 1493 1493 1500 1502 1510 1515 1518 1519 1519 1521 1524 1523 1522 1522 1522 1523 1525 1526 1527 1527 1530 1532 1529 1522 1531 1531 1530 1535 1535 1538 1540 1541 1541 1541 1541 1543 1544 1545 1547 1548 1550